Regional Weather Roundup
Issued by NWS Jackson, KY

Home | Current Version | Previous Version | Text Only | Print | Product List | Glossary Off
Versions: 1 2 3 4 5 6 7 8 9 10 11 12 13 14 15 16 17 18 19 20 21 22 23 24 25 26 27 28 29 30 31 32 33 34 35 36 37 38 39 40 41 42 43 44 45 46 47 48 49 50

000
ASUS43 KJKL 300410
RWRJKL

EAST KENTUCKY HOURLY WEATHER ROUNDUP
NATIONAL WEATHER SERVICE JACKSON KY
1200 AM EDT SAT APR 30 2016

NOTE: "FAIR" INDICATES FEW OR NO CLOUDS BELOW 12,000 FEET WITH
NO SIGNIFICANT WEATHER AND/OR OBSTRUCTIONS TO VISIBILITY.

* THESE REPORTS ARE NOT UNDER NWS QUALITY CONTROL AND MAY NOT
  REPORT WEATHER SUCH AS PRECIPITATION AND FOG.

KYZ079-080-083-085-087-088-110-112-115-119-120-300500
...EASTERN KENTUCKY...

CITY           SKY/WX    TMP DP  RH WIND       PRES   REMARKS
JACKSON        CLOUDY    62  50  64 VRB3      30.02F
LONDON         CLOUDY    65  51  60 NE7       30.04F
SOMERSET*      CLOUDY    63  52  67 CALM      30.04R
MONTICELLO*    CLOUDY    65  56  72 W8        30.05R
WILLIAMSBURG*  CLOUDY    59  50  72 NE3       30.03F
MIDDLESBORO*   CLOUDY    63  55  76 CALM      30.03F
HARLAN APT*      N/A     61  52  72 CALM      30.05F
HAZARD APT*    CLEAR     64  50  59 CALM      30.07F
BLACK MTN*       N/A     55  46  71 N7          N/A
PIKE CO APT*     N/A     61  52  71 N7        30.09R
BIG SANDY APT* CLOUDY    61  54  77 NE3       30.09R
MOREHEAD APT*  CLOUDY    59  52  77 NE6       30.11R
$$

KYZ035-036-041-042-044-050-067-078-099-300500
...CENTRAL KENTUCKY...

CITY           SKY/WX    TMP DP  RH WIND       PRES   REMARKS
MT STERLING*   CLOUDY    59  54  82 NE9       30.07F
FLEMING/MASON* CLOUDY    57  49  74 NE6       30.12R
DANVILLE*      CLOUDY    61  50  67 NE7       30.03F
RICHMOND*      MOCLDY    63  50  63 NE7       30.02F
LEXINGTON      CLOUDY    62  49  62 NE9       30.04F
FRANKFORT      CLOUDY    63  49  60 NE10      30.02F
LOUISVILLE     CLOUDY    66  48  52 E7        30.01F
LEBANON*         N/A     63  50  63 NE6       30.02F
BOWLING GREEN  CLOUDY    65  59  81 E6        29.98F
$$

KYZ091>093-OHZ055-061-077-WVZ005-015-034-035-042-300500
...SOUTHERN OHIO/WEST VIRGINIA...

CITY           SKY/WX    TMP DP  RH WIND       PRES   REMARKS
COLUMBUS       CLOUDY    49  41  74 CALM      30.13S
DAYTON         CLOUDY    50  45  83 E12       30.12F
WILMINGTON     PTCLDY    51  47  86 NE9       30.11S
HUNTINGTON       N/A     59  50  72 NE6       30.09R
CHARLESTON       N/A     58  50  75 NE5       30.09R
PINEVILLE*       N/A     57  50  77 MISG      30.12S
BECKLEY          N/A     57  51  80 N6        30.10R
$$

VAZ002-007-008-TNZ017-027-036-066-071-300500
...SOUTHWEST VIRGINIA/EAST TENNESSEE...

CITY           SKY/WX    TMP DP  RH WIND       PRES   REMARKS
WISE*            N/A     63  39  42 N6        30.11S
BRISTOL        CLOUDY    61  55  81 CALM      30.04S
MORRISTOWN*    MOCLDY    64  55  72 CALM      30.01F
KNOXVILLE      CLOUDY    68  55  63 CALM      29.99F
OAK RIDGE      CLOUDY    67  60  78 CALM      30.00F
CROSSVILLE     CLOUDY    64  54  69 CALM      30.03F
NASHVILLE      MOCLDY    66  58  75 E5        29.95F
$$

...KEY TO REMARKS...
VSB - VISIBILITY IN MILES
WCI - WIND CHILL INDEX
HX  - HEAT INDEX

$$



USA.gov is the U.S. government's official web portal to all federal, state and local government web resources and services.